Regional Weather Roundup
Issued by NWS

Home | Current Version | Previous Version | Text Only | Print | Product List | Glossary On
Versions: 1 2 3 4 5 6 7 8 9 10 11 12 13 14 15 16 17 18 19 20 21 22 23 24 25 26 27 28 29 30 31 32 33 34 35 36 37 38 39 40 41 42 43 44 45 46 47 48 49 50
000
ASUS43 KDTX 210310
RWRMI
MICHIGAN HOURLY REGIONAL WEATHER ROUNDUP
NATIONAL WEATHER SERVICE DETROIT/PONTIAC MI
1100 PM EDT SUN MAY 20 2018

NOTE: "FAIR" INDICATES FEW OR NO CLOUDS BELOW 12,000 FEET WITH NO
SIGNIFICANT WEATHER AND/OR OBSTRUCTION TO VISIBILITY.

MIZ047>049-052>055-059>063-066>070-074>076-081>083-210400-
SOUTHEAST LOWER MICHIGAN

CITY           SKY/WX    TMP DP  RH WIND       PRES   REMARKS
ADRIAN         CLOUDY    57  56  96 E8        30.20R FOG
ALMA           FOG       48  48 100 CALM      30.20R VSB 1/2
ANN ARBOR      CLOUDY    58  54  86 E3        30.19R
BAD AXE        FAIR      43  42  98 CALM      30.22R
CARO           FOG       47  46  95 CALM      30.20S VSB 1
DETROIT CITY   CLOUDY    53  46  77 NE6       30.21R
DETROIT        CLOUDY    58  51  78 E5        30.20R
FLINT          FAIR      53  50  89 CALM      30.21R
GROSSE ILE     FAIR      55  51  87 E5        30.20R
HILLSDALE      CLOUDY    55  54  94 NE7       30.18R
HOWELL         FAIR      52  51  95 CALM      30.20S

CITY           SKY/WX    TMP DP  RH WIND       PRES   REMARKS
JACKSON        CLOUDY    57  55  93 NE3       30.19R
LAMBERTVILLE   CLOUDY    59  55  84 E3        30.20R
LANSING        FAIR      51  50  96 E3        30.20R
LAPEER         FAIR      50  49  95 CALM      30.21R
MASON          FAIR      53  50  92 CALM      30.20R
MONROE         MOCLDY    56  54  93 E3        30.18F
MT. CLEMENS    PTCLDY    49  49 100 NE6       30.21R
PONTIAC        MOCLDY    55  51  86 CALM      30.19R
PORT HOPE        N/A     42  40  92 SW3       30.19R
PORT HURON     FAIR      43  39  87 CALM      30.22R
TRI CITIES     FAIR      52  49  89 E3        30.21R
MIDLAND        FAIR      49  48  98 CALM      30.20S
TROY           FAIR      55  47  77 NE6       30.23R
SAGINAW HB     FAIR      48  46  93 E5        30.21R
$$
MIZ043>046-050>051-056>058-064>065-071>073-077>080-210400-
SOUTHWEST LOWER MICHIGAN

CITY           SKY/WX    TMP DP  RH WIND       PRES   REMARKS
BATTLE CREEK   CLOUDY    58  54  86 E3        30.19R
BENTON HARBOR  CLOUDY    58  54  86 CALM      30.19R
BIG RAPIDS     FAIR      53  49  84 CALM      30.18R
COLDWATER      CLOUDY    57  56  96 NE7       30.18S
FREMONT        FAIR      53  52  96 CALM      30.19R
HOLLAND        FAIR      55  51  86 E6        30.19R
GRAND RAPIDS   FAIR      54  51  90 SE6       30.19R
IONIA          FAIR      53  51  94 SE3       30.20R
KALAMAZOO      CLOUDY    58  54  86 E5        30.19R
LUDINGTON      FAIR      45  43  93 CALM      30.17S
MARSHALL       FAIR      55  54  95 E3        30.19R
MOUNT PLEASANT FAIR      52  50  93 CALM      30.19S
MUSKEGON       MOCLDY    50  47  89 CALM      30.19R
SOUTH HAVEN    FAIR      56  54  93 SW3       30.19R
$$
MIZ016>042-210400-
NORTHERN LOWER MICHIGAN

CITY           SKY/WX    TMP DP  RH WIND       PRES   REMARKS
ALPENA         FAIR      43  41  93 CALM      30.21R
BEAVER ISLAND  FAIR      40  34  79 CALM      30.22R
BELLAIRE       FAIR      42  39  91 CALM      30.21R
CADILLAC       FAIR      49  43  79 CALM      30.19S
CHARLEVOIX     FAIR      42  38  84 CALM      30.24R
FRANKFORT      FAIR      43  39  87 CALM      30.20R
GAYLORD        FAIR      48  37  65 CALM      30.21R
GRAYLING       FAIR      47  43  87 CALM      30.19R
HARBOR SPRINGS FAIR      40  39  97 CALM      30.21R
HOUGHTON LAKE  FAIR      53  48  83 S8        30.20R
MANISTEE       FAIR      43  41  93 E5        30.18R
OSCODA         FAIR      43  37  81 CALM      30.20S
PELLSTON       FAIR      45  38  76 CALM      30.22R
ROGERS CITY    FAIR      44  36  73 W3        30.22R
TRAVERSE CITY  FAIR      44  38  79 CALM      30.19S
$$
MIZ007>008-015-210400-
EASTERN UPPER MICHIGAN

CITY           SKY/WX    TMP DP  RH WIND       PRES   REMARKS
KINROSS        FAIR      44  30  57 CALM      30.20S
MACKINAC ISLAN FAIR      46  32  58 CALM      30.20S
NEWBERRY       FAIR      49  31  50 CALM      30.19S
S. S. MARIE    FAIR      40  34  79 SW7       30.19S
MUNISING         N/A     46  37  71 S6        30.19R
$$
MIZ004>006-011>014-085-210400-
CENTRAL UPPER MICHIGAN

CITY           SKY/WX    TMP DP  RH WIND       PRES   REMARKS
MANISTIQUE     FAIR      39  38  94 CALM      30.20R
ESCANABA       FAIR      43  36  76 CALM      30.21R
SAWYER-GWINN   FAIR      46  31  54 CALM      30.21R
$$
MIZ001>003-009>011-084-210400-
WESTERN UPPER MICHIGAN

CITY           SKY/WX    TMP DP  RH WIND       PRES   REMARKS
IRON MOUNTAIN  FAIR      54  33  45 SE3       30.19R
HOUGHTON       FAIR      54  29  38 NW6       30.17R
COPPER HARBOR    N/A     52  32  46 SW6       30.16R
IRONWOOD       FAIR      46  38  73 CALM      30.19R
$$

ABBREVIATIONS USED IN REMARKS
   TC - TEMPERATURE IN CELSIUS
  WCI - WIND CHILL INDEX
   HX - HEAT INDEX
  VSB - VISIBILITY




USA.gov is the U.S. government's official web portal to all federal, state and local government web resources and services.